Tartu current weather conditions

sailwx.info

Wind from 260 at 14 knots

Air temperature 2.0° C
Visibility: greater than 5.4 NM
Dewpoint 2.0° C
Present weather: Light drizzle.

Last reported at 2017-Apr-25 22:50 UTC.
Time now 2017-Apr-26 00:21 UTC

Location: N 58°18' E 026°41'.
View on Google Maps.

See reports from other nearby stations

  
Tides and Currents Weather Stations Pressure Air Temp Water Temp Dewpoint Dewpoint Depression Visibility Wind Speed Wind Dir Waves Ship Positions
date/time (UTC)wind fromknots sea level pressurealtimeterstation pressurevisibilityair tempwater tempwave heightnotes
2017-Apr-25 23:50 260 13 5.4 2.0 Light drizzle.
2017-Apr-25 22:50 260 14 5.4 2.0 Light drizzle.
2017-Apr-25 21:50 240 6 5.4 2.0 Light rain.
2017-Apr-25 20:50 240 2 5.4 2.0 Light rain.
2017-Apr-25 19:50 230 6 2.5 3.0 Rain.
2017-Apr-25 18:50 240 6 2.7 3.0 Rain.
2017-Apr-25 17:50 1.8 4.0 Rain.
2017-Apr-25 16:50 300 4 2.7 4.0 Rain.
2017-Apr-25 15:50 110 6 5.4 5.0 Drizzle.
2017-Apr-25 14:50 060 6 5.4 4.0 Drizzle.
2017-Apr-25 13:50 110 5 5.4 3.0 Light rain.
2017-Apr-25 12:50 150 11 5.4 3.0 Light rain.
2017-Apr-25 11:50 160 13 3.8 3.0 Rain.
2017-Apr-25 10:50 160 11 5.4 4.0 Drizzle.
2017-Apr-25 09:50 170 12 5.4 4.0
2017-Apr-25 08:50 160 12 5.4 4.0
2017-Apr-25 07:50 170 11 5.4 3.0
2017-Apr-25 06:50 160 13 5.4 3.0
2017-Apr-25 05:50 160 13 5.4 2.0
2017-Apr-25 04:50 150 9 4.3 2.0 Light rain.
2017-Apr-25 03:50 160 9 5.4 2.0 Light rain.
2017-Apr-25 02:50 150 6 5.4 1.0
2017-Apr-25 01:50 150 7 5.4 1.0
2017-Apr-25 00:50 150 8 5.4 1.0
2017-Apr-24 23:50 150 7 5.4-0.0
2017-Apr-24 22:50 150 6 5.4 1.0
2017-Apr-24 21:50 140 5 5.4-0.0
2017-Apr-24 20:50 160 5 5.4 1.0
2017-Apr-24 19:50 150 4 5.4 2.0
2017-Apr-24 18:50 160 6 5.4 3.0
2017-Apr-24 17:50 170 5 5.4 4.0
2017-Apr-24 16:50 320 4 5.4 5.0
2017-Apr-24 15:50 310 6 5.4 7.0
2017-Apr-24 14:50 290 9 5.4 7.0
2017-Apr-24 13:50 240 9 5.4 8.0
2017-Apr-24 12:50 220 12 5.4 7.0
2017-Apr-24 11:50 250 11 5.4 7.0
2017-Apr-24 10:50 210 7 5.4 6.0
2017-Apr-24 09:50 260 7 5.4 6.0
2017-Apr-24 08:50 240 7 5.4 5.0
2017-Apr-24 07:50 230 8 5.4 4.0
2017-Apr-24 06:50 250 12 5.4 3.0
2017-Apr-24 05:50 240 12 5.4 2.0
2017-Apr-24 04:50 230 7 5.4 1.0
2017-Apr-24 03:50 230 6 5.4-0.0
2017-Apr-24 02:50 230 6 5.4-0.0 Precipitation.
2017-Apr-24 01:50 220 7 5.4-1.0
2017-Apr-24 00:50 230 6 5.4-2.0